[[{"header":{"parameterUnit":"m.s-1","parameterCategory":1,"la1":30.2991,"la2":30.254,"lo1":-89.0895,"lo2":-89.0444,"dy":0.0017,"dx":0.0017,"nx":28,"ny":28,"refTime":"2024-05-02T21:00:00:Z","depth":0,"parameterNumber":2,"parameterNumberName":"U-component_of_WINDS"},"data":[0,0,0,0,0,0,0,0,0,0,0,0,0,0,0,0,0,0,0,0,0,0,0,0,0,0,0,0,0,0,0,0,0,0,0,0,0,0,0,0,0,0,0,0,0,0,0,0,0,0,0,0,0,0,0,0,0,0,-0.9408,-0.9407,0,-0.9379,-0.9379,-0.9378,-0.9328,-0.9327,-0.9326,-0.9326,-0.9297,-0.9297,-0.9298,0,0,0,0,0,0,0,0,0,0,0,0,0,-0.9421,-0.9421,-0.9408,-0.9407,-0.9407,-0.9379,-0.9379,-0.9378,-0.9328,-0.9327,-0.9326,-0.9325,-0.9297,-0.9297,-0.9298,0,0,0,0,0,0,0,0,0,0,0,0,0,-0.9406,-0.9421,-0.9408,-0.9379,-0.9376,-0.9379,-0.9379,-0.9378,-0.9329,-0.9327,-0.9326,-0.9325,-0.9297,-0.9297,-0.9298,-0.9327,0,0,-0.9298,-0.9298,0,0,0,0,0,0,0,0,-0.9407,-0.9406,-0.9383,-0.9381,-0.9378,-0.9356,-0.9373,-0.9361,-0.9329,-0.9347,-0.9325,-0.9324,-0.9318,-0.9316,-0.9314,-0.9326,-0.9325,-0.9298,-0.9298,-0.9298,-0.9299,0,0,0,0,0,0,0,-0.9408,-0.9407,-0.9396,-0.9383,-0.938,-0.9368,-0.9364,-0.937,-0.9341,-0.9345,-0.9341,-0.9339,-0.9316,-0.9314,-0.9313,-0.9324,-0.9298,-0.9298,-0.9299,-0.9299,-0.9358,-0.9359,0,0,0,0,0,0,-0.9413,-0.9408,-0.9397,-0.9396,-0.9389,-0.9369,-0.9364,-0.9364,-0.934,-0.9335,-0.934,-0.9336,-0.9314,-0.9313,-0.9312,-0.9344,-0.9298,-0.9299,-0.9299,-0.9356,-0.9358,-0.936,0,0,0,0,0,0,-0.9414,-0.9413,-0.9398,-0.9401,-0.9398,-0.937,-0.937,-0.9364,-0.9362,-0.9336,-0.9331,-0.9343,-0.9313,-0.9312,-0.9323,-0.9342,-0.9299,-0.9299,-0.9355,-0.9357,-0.9359,-0.9409,0,0,0,0,0,0,-0.9414,-0.9413,-0.9424,-0.9401,-0.9398,-0.941,-0.9371,-0.9365,-0.9363,-0.9358,-0.9338,-0.9333,-0.9312,-0.9323,-0.9324,-0.9342,-0.9299,-0.9353,-0.9356,-0.9358,-0.9405,-0.9412,-0.9418,0,0,0,0,0,-0.9415,-0.944,-0.9425,-0.9424,-0.9411,-0.9411,-0.941,-0.9384,-0.9364,-0.9375,-0.9358,-0.9334,-0.9341,-0.9325,-0.9325,-0.9343,-0.9351,-0.9355,-0.9358,-0.9402,-0.9411,-0.9418,0,0,0,0,0,0,-0.9466,-0.9436,-0.9419,-0.9437,-0.9427,-0.9403,-0.9415,-0.9394,-0.939,-0.9386,-0.9355,-0.9351,-0.9366,-0.9356,-0.9339,-0.937,-0.9342,-0.9346,-0.9376,-0.9384,-0.939,-0.9392,-0.9299,0,0,0,0,0,-0.9479,-0.9482,-0.9456,-0.9474,-0.947,-0.9444,-0.9443,-0.9424,-0.9413,-0.9409,-0.9393,-0.9383,-0.9382,-0.9383,-0.9381,-0.9404,-0.9399,-0.9417,-0.9423,-0.9429,-0.9432,-0.9442,-0.9449,-0.937,-0.937,-0.937,0,0,-0.9506,-0.949,-0.9494,-0.9484,-0.9474,-0.9477,-0.9441,-0.9446,-0.9448,-0.941,-0.9419,-0.9407,-0.9394,-0.9411,-0.9418,-0.9404,-0.9452,-0.9433,-0.9438,-0.9437,-0.9446,-0.9453,-0.946,-0.9373,-0.9372,-0.9372,0,0,-0.9557,-0.9546,-0.956,-0.955,-0.9535,-0.9518,-0.9521,-0.95,-0.9491,-0.95,-0.9471,-0.9473,-0.9474,-0.9465,-0.9461,-0.9509,-0.9487,-0.951,-0.9544,-0.9554,-0.956,-0.9565,-0.9581,-0.9588,-0.9513,-0.9513,-0.9513,0,-0.9593,-0.9597,-0.957,-0.9576,-0.9573,-0.9537,-0.9551,-0.9543,-0.9529,-0.9527,-0.9511,-0.951,-0.9499,-0.9513,-0.9525,-0.9523,-0.9525,-0.9511,-0.9561,-0.9566,-0.9571,-0.9586,-0.9592,-0.9516,-0.9516,-0.9515,-0.9515,0,-0.9641,-0.9645,-0.9657,-0.9643,-0.9641,-0.9652,-0.9626,-0.9627,-0.9609,-0.9593,-0.9603,-0.9588,-0.9582,-0.9585,-0.9567,-0.9596,-0.9587,-0.9567,-0.9538,-0.9582,-0.9595,-0.9601,-0.952,-0.9519,-0.9518,-0.9517,0,0,-0.9723,-0.9693,-0.9698,-0.9691,-0.9673,-0.9675,-0.9684,-0.9677,-0.9679,-0.967,-0.9676,-0.9678,-0.9658,-0.9654,-0.9635,-0.9644,-0.9682,-0.9622,-0.9622,-0.9633,-0.9712,-0.9726,-0.9733,-0.9667,-0.9668,-0.9669,-0.9712,0,-0.9769,-0.9781,-0.9757,-0.9775,-0.9777,-0.9744,-0.9752,-0.9741,-0.9727,-0.9727,-0.9712,-0.9712,-0.9687,-0.9684,-0.9692,-0.9676,-0.9697,-0.9672,-0.9672,-0.9672,-0.9675,-0.974,-0.9756,-0.9797,-0.9717,-0.9718,-0.9719,0,-0.9824,-0.9817,-0.9836,-0.9815,-0.9815,-0.9823,-0.9815,-0.9815,-0.9803,-0.9792,-0.9787,-0.9764,-0.9772,-0.9745,-0.9754,-0.9738,-0.9736,-0.9728,-0.9729,-0.9727,-0.9697,-0.9739,-0.981,-0.9815,-0.9727,-0.9727,-0.9726,0,-0.988,-0.9876,-0.9886,-0.9881,-0.9858,-0.9864,-0.9854,-0.984,-0.9838,-0.9832,-0.983,-0.9825,-0.9821,-0.9818,-0.9795,-0.9778,-0.9807,-0.9778,-0.9797,-0.9798,-0.9803,-0.9803,-0.9874,-0.9805,-0.9805,-0.9805,-0.9805,0,-0.9933,-0.9945,-0.9911,-0.9917,-0.993,-0.9902,-0.9915,-0.9903,-0.9891,-0.9894,-0.9866,-0.9869,-0.9839,-0.984,-0.9822,-0.9832,-0.9831,-0.9822,-0.9817,-0.9824,-0.9825,-0.9821,-0.9817,-0.9807,-0.9806,-0.9806,-0.9806,0,-0.9997,-0.9974,-0.9983,-0.996,-0.9954,-0.9965,-0.9945,-0.995,-0.9934,-0.9939,-0.9938,-0.9913,-0.9912,-0.9889,-0.9884,-0.9872,-0.9888,-0.9879,-0.9892,-0.9889,-0.9908,-0.9906,-0.9978,-0.9986,-0.9914,-0.9915,-0.9915,0,-1.0031,-1.004,-1.0018,-1.0017,-1.0009,-1.001,-1.0007,-0.998,-0.9979,-0.9965,-0.9971,-0.9968,-0.9964,-0.9964,-0.9945,-0.9941,-0.993,-0.9956,-0.9929,-0.9935,-0.9929,-0.9928,-0.9928,-0.9961,-0.9962,-0.9962,-0.9963,0,-1.0095,-1.0083,-1.008,-1.0073,-1.0071,-1.0064,-1.0056,-1.0058,-1.0028,-1.0028,-1.0026,-1.0023,-1.0017,-1.0014,-1.0006,-0.9996,-0.9975,-0.9972,-0.9975,-0.9982,-0.9989,-0.9984,-0.9906,-0.997,-0.9969,-0.9969,-0.9968,-0.9968,-1.0144,-1.0149,-1.0135,-1.0132,-1.0123,-1.0116,-1.0119,-1.0103,-1.0101,-1.0094,-1.0079,-1.0079,-1.0066,-1.0053,-1.0046,-1.0046,-1.0033,-1.0039,-1.004,-1.0041,-1.0045,-0.999,-1.0044,-1.0044,-1.0044,-1.0044,-1.0044,0,-1.0205,-1.0193,-1.0191,-1.018,-1.0178,-1.0158,-1.0148,-1.0148,-1.0148,-1.0138,-1.0134,-1.0132,-1.0129,-1.011,-1.0105,-1.0109,-1.0098,-1.0108,-1.0107,-1.0105,-1.0057,-1.0054,-1.0116,-1.0116,-1.0116,-1.0116,-1.0116,-1.0116,-1.0236,-1.0244,-1.0231,-1.0234,-1.0223,-1.0223,-1.0218,-1.0212,-1.0203,-1.0202,-1.0199,-1.0187,-1.0173,-1.0166,-1.0162,-1.0157,-1.0156,-1.0168,-1.0159,-1.0115,-1.0108,-1.0101,-1.0098,-1.0169,-1.0169,-1.0206,-1.0207,-1.0207]},{"header":{"parameterUnit":"m.s-1","parameterCategory":1,"la1":30.2991,"la2":30.254,"lo1":-89.0895,"lo2":-89.0444,"dy":0.0017,"dx":0.0017,"nx":28,"ny":28,"refTime":"2024-05-02T21:00:00:Z","depth":0,"parameterNumber":3,"parameterNumberName":"V-component_of_WINDS"},"data":[0,0,0,0,0,0,0,0,0,0,0,0,0,0,0,0,0,0,0,0,0,0,0,0,0,0,0,0,0,0,0,0,0,0,0,0,0,0,0,0,0,0,0,0,0,0,0,0,0,0,0,0,0,0,0,0,0,0,0.4171,0.4173,0,0.4294,0.4295,0.4296,0.4396,0.4397,0.4398,0.4399,0.452,0.4523,0.4525,0,0,0,0,0,0,0,0,0,0,0,0,0,0.4018,0.402,0.4171,0.4173,0.4174,0.4293,0.4295,0.4297,0.4396,0.4397,0.4399,0.44,0.452,0.4522,0.4525,0,0,0,0,0,0,0,0,0,0,0,0,0,0.4106,0.4021,0.4171,0.4238,0.4246,0.4293,0.4295,0.4297,0.4396,0.4397,0.4399,0.44,0.4519,0.4522,0.4525,0.4515,0,0,0.4536,0.4537,0,0,0,0,0,0,0,0,0.4101,0.4112,0.4227,0.4234,0.4242,0.4331,0.4286,0.437,0.4395,0.4339,0.4399,0.4401,0.4456,0.4465,0.4484,0.452,0.4526,0.4536,0.4538,0.4539,0.454,0,0,0,0,0,0,0,0.4095,0.4107,0.422,0.4228,0.4238,0.4261,0.4275,0.4302,0.4387,0.4344,0.4351,0.4365,0.446,0.448,0.4488,0.4527,0.4536,0.4539,0.4541,0.4542,0.4559,0.4557,0,0,0,0,0,0,0.4079,0.4102,0.4216,0.4223,0.4174,0.4262,0.4278,0.4301,0.4387,0.4402,0.4363,0.4369,0.4474,0.4484,0.4492,0.4484,0.4539,0.4543,0.4545,0.456,0.4558,0.4556,0,0,0,0,0,0,0.4076,0.4088,0.4211,0.4165,0.4182,0.4263,0.4288,0.4303,0.4323,0.4402,0.4417,0.4369,0.4476,0.4487,0.4508,0.449,0.4544,0.4547,0.4562,0.456,0.4557,0.4469,0,0,0,0,0,0,0.4071,0.4087,0.4085,0.4164,0.4184,0.4226,0.4287,0.4304,0.4329,0.4338,0.4411,0.4424,0.4478,0.4503,0.4511,0.4496,0.455,0.4564,0.4561,0.4558,0.4474,0.4464,0.4455,0,0,0,0,0,0.4065,0.4055,0.4084,0.4098,0.4184,0.4225,0.4236,0.43,0.4327,0.4325,0.4375,0.4422,0.449,0.4504,0.4515,0.45,0.4565,0.4562,0.4558,0.4478,0.4466,0.4455,0,0,0,0,0,0,0.3971,0.4066,0.41,0.4116,0.4161,0.4242,0.4242,0.4285,0.4323,0.4329,0.4404,0.442,0.4432,0.4468,0.4481,0.4492,0.4534,0.4532,0.4469,0.4458,0.4449,0.444,0.4553,0,0,0,0,0,0.3952,0.3979,0.406,0.4066,0.4087,0.416,0.418,0.4225,0.4275,0.4294,0.4346,0.4391,0.4423,0.4442,0.4476,0.4479,0.4495,0.4474,0.4464,0.4456,0.4454,0.4456,0.4447,0.4545,0.4545,0.4545,0,0,0.3913,0.3969,0.3981,0.4048,0.4089,0.4114,0.4176,0.42,0.4218,0.4298,0.4321,0.4359,0.4415,0.4426,0.4434,0.4457,0.443,0.4452,0.4445,0.4447,0.4452,0.4442,0.4434,0.4542,0.4543,0.4543,0,0,0.3855,0.39,0.3909,0.3949,0.401,0.4058,0.4059,0.4133,0.4162,0.4186,0.4246,0.4268,0.4321,0.4358,0.4383,0.4336,0.438,0.4344,0.4296,0.4297,0.429,0.4283,0.4265,0.4258,0.4342,0.4341,0.4341,0,0.3799,0.384,0.3908,0.3928,0.3955,0.4028,0.4037,0.4071,0.4139,0.4155,0.418,0.4247,0.4289,0.431,0.4298,0.4316,0.4319,0.4337,0.4286,0.428,0.4275,0.4258,0.4252,0.4337,0.4337,0.4338,0.4338,0,0.3767,0.3794,0.3794,0.3859,0.3885,0.3899,0.3967,0.3985,0.4026,0.4071,0.4093,0.4146,0.4191,0.4199,0.4239,0.4224,0.4236,0.4272,0.4315,0.426,0.4245,0.424,0.433,0.4332,0.4333,0.4334,0,0,0.3656,0.3756,0.3755,0.3784,0.3856,0.3877,0.3893,0.3938,0.3951,0.3994,0.4009,0.4051,0.4084,0.4113,0.4157,0.4158,0.4115,0.4194,0.4196,0.4177,0.41,0.4073,0.4065,0.4145,0.4144,0.4143,0.4095,0,0.3609,0.3644,0.3704,0.3718,0.3743,0.3811,0.3825,0.3869,0.391,0.3935,0.398,0.4009,0.4051,0.4068,0.4072,0.412,0.4101,0.4124,0.4157,0.4157,0.4141,0.4058,0.403,0.3982,0.409,0.409,0.4089,0,0.356,0.36,0.3617,0.3685,0.3697,0.3708,0.3753,0.3777,0.3827,0.3857,0.3887,0.3936,0.3954,0.3992,0.4017,0.4031,0.4048,0.4073,0.4072,0.4078,0.412,0.4061,0.3969,0.3962,0.4081,0.4082,0.4082,0,0.3476,0.3534,0.3551,0.3574,0.3654,0.366,0.3693,0.3745,0.3767,0.3805,0.382,0.3859,0.388,0.3908,0.3965,0.3988,0.3982,0.4026,0.4006,0.4005,0.4003,0.4002,0.3912,0.4013,0.4013,0.4013,0.4013,0,0.3418,0.3425,0.3514,0.3525,0.3534,0.3602,0.3608,0.3648,0.3692,0.371,0.3771,0.3786,0.386,0.3883,0.3927,0.394,0.3949,0.3972,0.3984,0.3967,0.3964,0.398,0.3984,0.4011,0.4012,0.4012,0.4012,0,0.3326,0.3386,0.341,0.3482,0.3501,0.3504,0.3566,0.3577,0.3621,0.3643,0.3652,0.372,0.375,0.3809,0.3855,0.3885,0.3887,0.3908,0.3871,0.3878,0.3855,0.3856,0.3771,0.3763,0.3868,0.3867,0.3866,0,0.3285,0.3293,0.3366,0.3383,0.3414,0.344,0.3463,0.3528,0.3549,0.3605,0.3609,0.3644,0.3676,0.372,0.3772,0.3807,0.3829,0.3797,0.3835,0.3817,0.3828,0.3827,0.3827,0.3789,0.3787,0.3786,0.3785,0,0.3206,0.3235,0.3267,0.3307,0.3333,0.3368,0.3406,0.3416,0.349,0.351,0.3542,0.3566,0.3612,0.3645,0.3688,0.372,0.3764,0.3772,0.377,0.3753,0.3731,0.3741,0.3847,0.3774,0.3775,0.3776,0.3777,0.3777,0.3139,0.3148,0.32,0.3233,0.3268,0.3302,0.3316,0.3361,0.3389,0.3433,0.3469,0.3497,0.3544,0.3606,0.3635,0.3656,0.3678,0.3674,0.3673,0.3671,0.3663,0.3726,0.3664,0.3665,0.3665,0.3665,0.3666,0,0.3062,0.3099,0.3128,0.3179,0.3204,0.3244,0.3287,0.3305,0.3329,0.337,0.3399,0.3434,0.3466,0.352,0.3556,0.3562,0.3583,0.357,0.357,0.3576,0.3643,0.3641,0.3552,0.3552,0.3552,0.3552,0.3552,0.3552,0.3026,0.3043,0.3077,0.3111,0.3147,0.3176,0.3197,0.3228,0.3261,0.3297,0.3324,0.3359,0.3405,0.3444,0.3474,0.3489,0.3499,0.3479,0.35,0.3561,0.3572,0.3582,0.3581,0.348,0.348,0.3432,0.3431,0.3431]}]]